This demonstration page uses our WeatherBlox Daily Observations layout. Learn more.

Left ArrowRight Arrow

39.08367, -84.50855

Hourly Observations for March 19, 2016

Temp ( °F °C ) Dew Point ( °F °C ) Humidity (%) Winds ( mph kmh ) Pressure ( in mb ) Visibility ( mi km ) Precip ( " mm )
12:53 am 00:53 Cloudy 47 8.3 28 -2.2 48 48 NNE 7 11 30.07 1018 10 16.0934 N/A
1:53 am 01:53 Cloudy 46 7.8 30 -1.1 54 54 NE 6 9 30.05 1018 10 16.0934 N/A
2:53 am 02:53 Cloudy 46 7.8 30 -1.1 54 54 NE 9 15 30.04 1017 10 16.0934 N/A
3:53 am 03:53 Cloudy 46 7.8 31 -0.6 56 56 NNE 7 11 30.04 1017 10 16.0934 N/A
4:53 am 04:53 Cloudy 45 7.2 32 undefined 61 61 NE 5 7 30.04 1017 10 16.0934 N/A
5:53 am 05:53 Cloudy with Light Rain 45 7.2 33 0.6 63 63 NNE 7 11 30.03 1017 10 16.0934 N/A
6:53 am 06:53 Cloudy 43 6.1 34 1.1 71 71 NNE 13 20 30.02 1017 10 16.0934 N/A
7:53 am 07:53 Cloudy with Light Rain 41 5 36 2.2 82 82 N 12 19 30.07 1018 10 16.0934 N/A
8:53 am 08:53 Cloudy 40 4.4 37 2.8 89 89 NNE 10 17 30.07 1018 10 16.0934 0.01 0.254
9:53 am 09:53 Cloudy with Light Rain 39 3.9 37 2.8 93 93 NNE 7 11 30.09 1019 9 14.48406 0.01 0.254
10:46 am 10:46 Cloudy with Light Rain 39 4 37 3 93 93 NE 10 17 30.09 1019 7 11.26538 N/A
10:53 am 10:53 Cloudy with Light Rain 40 4.4 37 2.8 89 89 NE 9 15 30.1 1019 6 9.65604 0.02 0.508
11:53 am 11:53 Cloudy with Light Rain 40 4.4 37 2.8 89 89 NE 8 13 30.12 1020 7 11.26538 0.03 0.762
12:53 pm 12:53 Cloudy with Light Rain 40 4.4 37 2.8 89 89 NE 9 15 30.11 1020 10 16.0934 0.02 0.508
1:53 pm 13:53 Cloudy 42 5.6 37 2.8 82 82 NE 8 13 30.09 1019 10 16.0934 N/A
1:55 pm 13:55 Cloudy 43 6.1 37 2.8 80 80 ENE 10 17 30.09 1019 10 16.0934 N/A
2:53 pm 14:53 Cloudy 46 7.8 38 3.3 73 73 NE 10 17 30.08 1019 10 16.0934 N/A
3:53 pm 15:53 Cloudy 45 7.2 35 1.7 68 68 NNE 9 15 30.1 1019 10 16.0934 N/A
4:53 pm 16:53 Cloudy 45 7.2 35 1.7 68 68 NNE 6 9 30.1 1019 10 16.0934 N/A
5:53 pm 17:53 Cloudy 45 7 34 1 66 66 NE 9 15 30.09 1019 10 16.0934 N/A
6:53 pm 18:53 Cloudy 43 6.1 34 1.1 71 71 NE 6 9 30.11 1020 10 16.0934 N/A
7:53 pm 19:53 Cloudy 43 6.1 33 0.6 68 68 ENE 3 6 30.12 1020 10 16.0934 N/A
8:53 pm 20:53 Cloudy 43 6.1 33 0.6 68 68 NE 3 6 30.12 1020 10 16.0934 N/A
10:53 pm 22:53 Cloudy 39 3.9 29 -1.7 67 67 NE 6 9 30.14 1021 10 16.0934 N/A

Powered by AerisWeather